![]() |
EMODnet Physics ERDDAP
Easier access to scientific data |
log in|
Brought to you by EMODnet Physics |
| Dataset Title: | NDBC - Collection of dew point temperature (DEWT) TimeSeries - IN SITU MultiPointTimeSeriesObservation
|
| Institution: | NDBC (Dataset ID: TS_DEWT_NDBC) |
| Information: | Summary
| License
| FGDC
| ISO 19115
| Metadata
| Background
| Subset
| Data Access Form
| Make a graph
|
| Name | Last modified | Size | Description | |
|---|---|---|---|---|
| Parent Directory | - | - | ||
| 46089_TS_DEWT_012005.nc | 26-Dec-2024 13:00 | 450305 | ||
| 46089_TS_DEWT_012006.nc | 26-Dec-2024 13:04 | 450228 | ||
| 46089_TS_DEWT_012009.nc | 26-Dec-2024 13:09 | 449113 | ||
| 46089_TS_DEWT_012012.nc | 26-Dec-2024 13:18 | 450271 | ||
| 46089_TS_DEWT_012016.nc | 26-Dec-2024 13:29 | 418871 | ||
| 46089_TS_DEWT_012022.nc | 26-Dec-2024 13:45 | 449903 | ||
| 46089_TS_DEWT_022005.nc | 26-Dec-2024 13:01 | 450193 | ||
| 46089_TS_DEWT_022006.nc | 26-Dec-2024 13:04 | 450225 | ||
| 46089_TS_DEWT_022009.nc | 26-Dec-2024 13:09 | 450062 | ||
| 46089_TS_DEWT_022012.nc | 26-Dec-2024 13:18 | 429835 | ||
| 46089_TS_DEWT_022022.nc | 26-Dec-2024 13:45 | 449121 | ||
| 46089_TS_DEWT_032005.nc | 26-Dec-2024 13:01 | 449346 | ||
| 46089_TS_DEWT_032006.nc | 26-Dec-2024 13:05 | 448491 | ||
| 46089_TS_DEWT_032009.nc | 26-Dec-2024 13:09 | 449510 | ||
| 46089_TS_DEWT_032012.nc | 26-Dec-2024 13:18 | 429574 | ||
| 46089_TS_DEWT_032022.nc | 26-Dec-2024 13:46 | 449908 | ||
| 46089_TS_DEWT_042005.nc | 26-Dec-2024 13:01 | 448632 | ||
| 46089_TS_DEWT_042006.nc | 26-Dec-2024 13:05 | 429574 | ||
| 46089_TS_DEWT_042009.nc | 26-Dec-2024 13:10 | 433779 | ||
| 46089_TS_DEWT_042012.nc | 26-Dec-2024 13:19 | 449192 | ||
| 46089_TS_DEWT_042022.nc | 26-Dec-2024 13:46 | 444589 | ||
| 46089_TS_DEWT_052005.nc | 26-Dec-2024 13:02 | 448991 | ||
| 46089_TS_DEWT_052009.nc | 26-Dec-2024 13:10 | 450042 | ||
| 46089_TS_DEWT_052012.nc | 26-Dec-2024 13:19 | 449504 | ||
| 46089_TS_DEWT_052017.nc | 26-Dec-2024 13:31 | 449939 | ||
| 46089_TS_DEWT_052021.nc | 26-Dec-2024 13:41 | 448831 | ||
| 46089_TS_DEWT_052022.nc | 26-Dec-2024 13:47 | 448173 | ||
| 46089_TS_DEWT_062005.nc | 26-Dec-2024 13:02 | 448840 | ||
| 46089_TS_DEWT_062008.nc | 26-Dec-2024 13:07 | 429577 | ||
| 46089_TS_DEWT_062009.nc | 26-Dec-2024 13:10 | 441064 | ||
| 46089_TS_DEWT_062012.nc | 26-Dec-2024 13:19 | 450922 | ||
| 46089_TS_DEWT_062017.nc | 26-Dec-2024 13:32 | 450257 | ||
| 46089_TS_DEWT_062021.nc | 26-Dec-2024 13:42 | 451162 | ||
| 46089_TS_DEWT_072005.nc | 26-Dec-2024 13:02 | 451335 | ||
| 46089_TS_DEWT_072008.nc | 26-Dec-2024 13:07 | 429919 | ||
| 46089_TS_DEWT_072009.nc | 26-Dec-2024 13:10 | 450896 | ||
| 46089_TS_DEWT_072011.nc | 26-Dec-2024 13:16 | 451390 | ||
| 46089_TS_DEWT_072012.nc | 26-Dec-2024 13:19 | 429916 | ||
| 46089_TS_DEWT_072016.nc | 26-Dec-2024 13:31 | 451375 | ||
| 46089_TS_DEWT_072021.nc | 26-Dec-2024 13:42 | 450162 | ||
| 46089_TS_DEWT_082005.nc | 26-Dec-2024 13:03 | 429913 | ||
| 46089_TS_DEWT_082006.nc | 26-Dec-2024 13:05 | 450957 | ||
| 46089_TS_DEWT_082008.nc | 26-Dec-2024 13:08 | 451430 | ||
| 46089_TS_DEWT_082009.nc | 26-Dec-2024 13:11 | 418876 | ||
| 46089_TS_DEWT_082011.nc | 26-Dec-2024 13:17 | 450159 | ||
| 46089_TS_DEWT_082012.nc | 26-Dec-2024 13:20 | 450810 | ||
| 46089_TS_DEWT_082016.nc | 26-Dec-2024 13:31 | 450749 | ||
| 46089_TS_DEWT_082021.nc | 26-Dec-2024 13:43 | 451060 | ||
| 46089_TS_DEWT_092005.nc | 26-Dec-2024 13:03 | 429915 | ||
| 46089_TS_DEWT_092007.nc | 26-Dec-2024 13:05 | 449234 | ||
| 46089_TS_DEWT_092008.nc | 26-Dec-2024 13:08 | 449767 | ||
| 46089_TS_DEWT_092011.nc | 26-Dec-2024 13:17 | 450551 | ||
| 46089_TS_DEWT_092015.nc | 26-Dec-2024 13:28 | 449956 | ||
| 46089_TS_DEWT_092016.nc | 26-Dec-2024 13:31 | 450167 | ||
| 46089_TS_DEWT_092021.nc | 26-Dec-2024 13:43 | 429571 | ||
| 46089_TS_DEWT_102005.nc | 26-Dec-2024 13:03 | 449114 | ||
| 46089_TS_DEWT_102007.nc | 26-Dec-2024 13:06 | 449721 | ||
| 46089_TS_DEWT_102008.nc | 26-Dec-2024 13:08 | 429575 | ||
| 46089_TS_DEWT_102011.nc | 26-Dec-2024 13:17 | 448760 | ||
| 46089_TS_DEWT_102012.nc | 26-Dec-2024 13:20 | 449403 | ||
| 46089_TS_DEWT_102015.nc | 26-Dec-2024 13:28 | 429574 | ||
| 46089_TS_DEWT_102016.nc | 26-Dec-2024 13:31 | 449587 | ||
| 46089_TS_DEWT_102021.nc | 26-Dec-2024 13:44 | 448868 | ||
| 46089_TS_DEWT_112004.nc | 26-Dec-2024 13:00 | 449121 | ||
| 46089_TS_DEWT_112005.nc | 26-Dec-2024 13:04 | 449362 | ||
| 46089_TS_DEWT_112007.nc | 26-Dec-2024 13:06 | 449685 | ||
| 46089_TS_DEWT_112008.nc | 26-Dec-2024 13:08 | 449649 | ||
| 46089_TS_DEWT_112011.nc | 26-Dec-2024 13:17 | 449782 | ||
| 46089_TS_DEWT_112012.nc | 26-Dec-2024 13:20 | 429570 | ||
| 46089_TS_DEWT_112015.nc | 26-Dec-2024 13:28 | 451935 | ||
| 46089_TS_DEWT_112024.nc | 17-Jan-2026 14:55 | 451310 | ||
| 46089_TS_DEWT_122004.nc | 26-Dec-2024 13:00 | 451257 | ||
| 46089_TS_DEWT_122005.nc | 26-Dec-2024 13:04 | 450641 | ||
| 46089_TS_DEWT_122007.nc | 26-Dec-2024 13:06 | 450997 | ||
| 46089_TS_DEWT_122008.nc | 26-Dec-2024 13:09 | 429911 | ||
| 46089_TS_DEWT_122011.nc | 26-Dec-2024 13:18 | 450475 | ||
| 46089_TS_DEWT_122012.nc | 26-Dec-2024 13:20 | 450756 | ||
| 46089_TS_DEWT_122015.nc | 26-Dec-2024 13:29 | 429917 | ||
| 46089_TS_DEWT_122021.nc | 26-Dec-2024 13:44 | 449922 | ||
| 46089_TS_DEWT_122024.nc | 17-Jan-2026 14:56 | 451080 | ||